Wind_Speed
15 14 13 14 16 19 21 23 25 27 28 28 28 28 27 26 25 24 22 21 21 20 20 20 20 21 21 20 21 22 22 24 27 28 27 24 23 22 20 19 18 19 20
9 10 11 14 17 19 22 24 25 26 26 26 26 25 24 24 23 22 21 21 20 19 19 19 19 19 19 19 19 20 22 22 25 27 29 29 27 25 23 22 21 21 21
8 10 13 16 19 21 22 23 23 23 22 22 22 23 22 22 22 21 20 20 20 20 19 18 18 18 17 18 18 19 20 22 24 25 27 30 30 29 28 26 25 25 24
11 13 15 17 19 20 20 20 19 19 19 19 21 21 22 22 22 21 21 21 21 21 20 20 19 18 18 18 18 19 20 20 21 24 26 29 30 30 30 30 30 30 28
13 15 16 18 18 17 17 16 15 17 18 19 20 20 21 22 22 22 21 21 21 22 22 22 21 20 19 19 19 19 20 21 21 22 26 27 29 31 32 32 32 32 31
14 15 16 17 16 16 16 17 17 18 19 19 20 20 21 22 22 22 23 23 22 22 22 23 23 23 22 22 21 21 22 22 22 23 24 27 29 32 34 35 34 34 34
13 14 15 15 16 17 18 18 19 20 20 20 21 21 21 22 23 23 23 24 24 24 23 23 23 24 24 24 23 23 24 24 23 23 24 25 27 30 34 37 37 36 37
12 13 15 17 18 19 19 20 20 21 21 22 22 22 22 23 23 23 23 23 24 24 24 24 23 23 23 24 24 24 24 24 24 24 24 24 25 27 30 34 38 39 39
13 15 17 18 19 20 20 20 21 21 22 22 22 22 22 22 23 23 22 22 22 22 22 23 24 23 23 23 23 23 23 23 23 23 23 23 24 26 29 31 34 36 38
15 16 18 19 20 21 21 22 22 22 22 21 21 21 21 21 21 21 21 21 21 21 20 21 22 22 22 21 22 22 22 22 22 22 22 22 22 23 25 27 30 33 36
16 17 19 20 20 21 22 22 22 21 21 20 19 19 19 20 20 21 21 22 22 22 22 21 21 21 20 20 20 20 20 21 21 22 22 22 22 22 23 23 24 26 29
17 18 19 20 20 20 20 20 19 19 19 18 18 18 19 19 20 21 22 22 23 23 23 23 23 22 20 19 18 18 19 19 20 21 22 22 22 22 23 23 24 24 25
17 18 18 18 18 17 17 17 16 16 16 16 17 17 18 18 19 20 21 22 23 24 25 25 25 24 23 21 19 19 18 19 20 20 21 22 22 23 23 24 25 26 27
17 17 17 16 16 16 15 15 14 14 15 15 15 16 16 17 17 18 19 20 21 22 24 25 25 25 24 23 21 19 19 18 19 19 20 21 22 22 23 24 26 27 28
17 17 16 16 16 15 14 14 14 14 14 14 14 13 13 13 14 14 15 15 16 17 18 20 21 22 21 21 20 19 18 18 18 18 18 19 20 21 22 23 24 25 26
18 18 17 17 16 16 16 15 15 15 15 15 13 13 12 12 12 12 11 10 7 5 7 10 14 16 16 16 16 16 16 15 15 15 16 16 17 19 20 22 23 25 26
18 18 18 18 18 18 18 18 17 16 17 16 16 15 13 12 12 12 11 8 6 5 4 6 9 10 9 9 9 9 9 10 10 11 13 14 16 18 19 21 23 25 27
18 19 19 20 20 20 20 20 20 19 19 19 18 17 16 16 15 14 14 13 12 11 10 10 9 8 7 5 4 3 3 4 6 8 10 12 14 17 20 22 24 26 28
17 18 19 19 20 21 22 21 21 22 22 22 22 21 20 19 19 18 18 18 17 16 16 15 13 11 9 8 6 4 3 3 5 7 9 12 15 17 20 22 25 27 29
16 17 18 18 19 21 22 22 22 23 23 24 24 25 24 24 23 22 22 21 20 19 19 18 17 15 13 12 10 8 7 7 8 10 12 14 17 19 22 24 26 27 28
15 16 17 17 18 20 21 22 22 23 24 24 25 25 26 26 26 26 25 24 23 22 21 21 20 19 17 16 13 12 11 11 12 14 16 17 19 20 22 23 24 24 25
15 15 16 16 17 18 19 20 21 22 23 23 23 24 25 25 25 25 24 24 23 23 22 21 20 19 18 17 16 15 15 15 16 17 18 18 19 20 20 21 22 21 21
13 14 15 16 16 17 17 18 20 21 21 21 22 22 23 23 24 23 23 23 23 22 21 20 19 18 18 17 17 17 17 18 18 19 19 19 20 21 22 22 22 22 21
12 13 14 16 16 16 17 17 18 18 19 20 19 19 20 20 20 21 20 20 20 20 19 19 18 18 17 17 17 18 18 19 20 20 21 21 22 22 23 23 24 23 23
9 11 13 14 16 16 16 16 16 16 17 17 17 17 17 17 17 17 18 18 18 18 18 17 17 17 17 17 18 18 18 19 20 21 22 23 24 25 25 25 26 26 26
6 8 10 12 14 15 15 15 14 15 15 15 15 14 14 14 14 14 15 15 16 16 16 17 17 17 18 18 18 18 19 19 20 21 23 24 25 26 26 27 27 28 28
Wind_Direction
221 228 246 260 271 279 285 290 292 293 294 295 296 295 293 290 288 286 284 280 276 272 268 264 261 256 256 253 245 240 237 234 231 232 235 236 237 237 237 237 238 239 238
227 246 262 274 283 289 292 295 294 294 295 295 295 295 292 288 286 284 281 277 274 270 267 264 261 257 256 254 246 241 240 237 235 235 236 236 237 240 240 240 241 242 242
253 268 280 288 293 295 296 298 294 292 292 293 294 292 289 285 283 282 279 275 271 268 265 263 260 257 255 252 250 247 245 244 241 239 240 237 238 241 242 243 245 246 246
283 288 292 296 297 299 301 299 294 289 290 291 290 289 286 283 281 281 278 274 270 265 263 261 258 257 254 252 251 251 248 248 247 245 244 243 243 241 241 244 246 247 248
289 293 296 297 300 302 303 299 295 293 292 290 288 287 285 283 280 277 277 275 271 266 262 260 258 257 254 253 252 252 252 253 254 254 249 246 246 243 242 244 246 248 249
292 295 298 300 300 299 298 296 294 292 292 289 287 286 285 283 280 277 275 274 272 267 264 261 258 257 256 256 255 255 255 256 257 257 255 252 251 247 244 246 248 249 250
297 300 301 301 300 300 300 298 296 293 291 290 288 287 285 283 281 279 277 273 270 267 264 260 258 257 256 257 257 257 257 258 259 259 259 257 255 252 248 248 249 251 252
307 305 304 305 305 303 302 300 298 296 293 291 289 287 285 283 282 280 278 275 271 267 263 260 258 256 255 255 256 257 258 258 258 259 258 257 256 253 251 249 251 253 254
311 309 308 307 306 304 303 302 301 298 295 292 289 287 285 284 282 280 278 275 271 267 263 260 257 256 256 255 255 256 257 257 258 258 258 257 256 254 254 253 253 255 254
311 310 309 307 305 303 302 301 300 299 296 292 289 286 284 282 280 278 275 271 269 267 264 260 257 256 255 256 256 257 257 257 258 258 257 258 258 259 258 257 255 254 254
315 312 310 309 307 306 305 303 301 299 296 292 288 286 284 282 279 276 273 270 267 265 262 258 255 255 254 254 256 257 258 258 257 257 257 258 259 259 259 258 257 259 258
326 323 321 320 318 316 313 310 306 302 299 295 292 290 288 285 282 279 276 271 267 264 260 256 253 253 253 254 256 257 257 257 257 257 256 258 258 259 258 259 261 263 265
341 339 338 336 334 331 328 323 317 311 307 303 300 297 294 291 288 285 280 275 270 264 259 254 251 251 251 252 257 259 259 257 257 257 256 256 257 258 259 259 261 263 264
356 355 353 352 350 347 344 341 336 329 322 315 310 307 304 300 296 292 286 280 273 266 259 252 248 246 246 248 252 256 259 259 258 258 258 259 259 261 262 264 266 267 268
10 9 7 6 4 3 1 358 353 348 344 338 331 326 322 317 313 308 303 295 282 269 256 246 240 239 240 241 245 251 256 258 257 257 259 262 263 265 267 269 271 272 273
22 22 23 23 21 19 15 11 7 5 2 360 356 351 345 341 340 338 333 325 309 282 249 231 224 223 226 232 239 247 253 255 255 258 261 264 267 270 273 275 276 277 277
33 33 32 30 28 25 23 20 18 17 15 13 12 11 11 12 12 13 17 23 39 66 106 151 175 187 198 211 226 238 245 251 259 267 272 275 278 280 281 282 282 281 280
36 35 33 32 31 30 29 28 29 30 29 27 27 30 33 34 36 41 46 55 66 83 96 107 123 139 149 160 180 207 242 268 284 292 294 293 292 291 290 289 288 287 286
36 34 34 34 33 33 34 35 36 37 37 38 40 43 45 46 50 55 60 67 73 81 87 92 94 100 105 104 100 89 56 12 343 329 318 311 306 302 300 298 295 293 291
32 32 33 35 36 37 39 39 41 43 43 46 48 51 54 56 59 63 69 72 74 79 83 84 86 86 86 84 78 69 49 21 358 342 331 323 316 312 309 306 303 300 298
32 32 33 35 37 39 40 41 43 45 47 50 53 56 58 60 63 67 69 72 74 78 80 80 79 79 77 73 65 52 35 18 2 350 342 336 330 326 322 319 316 312 309
32 32 33 34 36 39 41 41 43 45 48 51 53 55 58 60 63 66 68 70 71 74 75 75 73 71 66 59 50 41 31 20 12 5 359 355 350 345 340 335 333 329 326
33 34 34 36 36 37 39 40 41 43 45 49 52 54 57 60 62 65 67 68 70 70 70 68 64 60 55 49 42 35 29 23 18 12 8 3 359 356 352 348 346 342 339
35 38 38 37 37 37 37 39 40 41 43 46 49 52 54 57 59 61 63 63 63 63 61 58 54 50 46 41 37 33 28 25 23 21 18 15 11 8 6 3 0 356 352
35 41 40 38 36 35 35 36 38 39 41 41 43 45 47 49 52 53 53 54 53 52 50 48 45 41 38 34 31 28 26 24 23 23 22 22 20 18 16 14 12 9 6
25 33 35 34 32 30 30 31 34 35 36 36 36 37 38 40 43 44 45 45 44 43 41 39 37 34 30 28 26 24 23 23 23 23 23 22 21 20 19 18 16 15 12
Height
5789 5792 5795 5797 5799 5800 5800 5800 5799 5798 5797 5796 5794 5793 5792 5791 5790 5790 5789 5789 5789 5788 5788 5788 5789 5790 5791 5792 5794 5797 5799 5803 5806 5808 5811 5814 5816 5819 5821 5823 5825 5827 5828
5789 5791 5793 5795 5796 5796 5795 5794 5793 5792 5791 5789 5788 5787 5786 5785 5785 5784 5784 5784 5784 5784 5784 5784 5785 5785 5786 5788 5789 5792 5794 5797 5800 5802 5805 5808 5811 5814 5816 5818 5820 5822 5824
5788 5789 5791 5791 5791 5791 5790 5788 5787 5786 5785 5784 5783 5782 5781 5780 5780 5779 5779 5779 5779 5779 5779 5780 5780 5781 5782 5784 5785 5787 5789 5791 5794 5796 5799 5802 5805 5808 5810 5813 5815 5817 5819
5786 5787 5788 5787 5787 5786 5784 5783 5781 5781 5780 5779 5778 5776 5775 5774 5774 5774 5773 5774 5774 5774 5775 5776 5776 5777 5778 5779 5781 5782 5784 5786 5788 5790 5793 5795 5798 5801 5804 5807 5809 5811 5813
5784 5784 5784 5784 5783 5781 5780 5779 5777 5776 5775 5774 5772 5771 5769 5768 5768 5768 5768 5768 5769 5769 5770 5771 5771 5772 5773 5775 5776 5778 5779 5781 5782 5784 5786 5788 5791 5794 5797 5799 5802 5804 5807
5781 5781 5780 5780 5779 5778 5776 5775 5773 5771 5770 5768 5767 5765 5764 5762 5762 5761 5761 5762 5762 5763 5764 5764 5765 5766 5768 5769 5770 5772 5774 5775 5777 5778 5780 5782 5783 5786 5788 5791 5794 5797 5799
5778 5778 5777 5776 5775 5773 5772 5770 5768 5766 5765 5763 5761 5760 5758 5756 5755 5755 5754 5755 5755 5756 5757 5758 5759 5760 5761 5762 5764 5766 5768 5769 5771 5772 5774 5775 5776 5778 5780 5783 5785 5788 5790
5775 5774 5773 5772 5770 5768 5766 5764 5762 5760 5758 5757 5755 5753 5752 5751 5749 5748 5748 5748 5748 5748 5749 5750 5752 5753 5754 5756 5757 5759 5760 5762 5764 5765 5766 5768 5769 5770 5772 5774 5776 5779 5781
5773 5771 5770 5768 5766 5763 5761 5759 5757 5754 5752 5750 5748 5747 5745 5744 5743 5742 5741 5741 5741 5741 5741 5743 5744 5746 5747 5749 5750 5752 5753 5755 5756 5758 5759 5760 5761 5763 5764 5766 5768 5770 5772
5770 5768 5765 5763 5761 5759 5756 5753 5751 5748 5746 5744 5742 5740 5738 5737 5736 5735 5734 5734 5734 5734 5735 5736 5737 5739 5741 5742 5744 5745 5747 5748 5750 5751 5752 5754 5755 5756 5757 5758 5759 5761 5762
5766 5763 5761 5758 5756 5753 5750 5747 5744 5742 5740 5738 5736 5734 5732 5730 5729 5728 5727 5727 5727 5727 5728 5729 5731 5732 5734 5736 5737 5739 5741 5742 5743 5745 5746 5747 5748 5749 5750 5751 5752 5753 5753
5762 5759 5756 5753 5750 5747 5744 5741 5738 5736 5734 5732 5730 5728 5726 5724 5722 5721 5720 5719 5719 5720 5721 5722 5724 5726 5728 5730 5732 5733 5735 5736 5737 5739 5740 5741 5742 5742 5743 5744 5745 5745 5746
5758 5755 5752 5749 5746 5742 5739 5736 5734 5731 5729 5726 5724 5722 5719 5717 5715 5713 5712 5711 5711 5711 5712 5714 5716 5719 5721 5724 5726 5728 5729 5730 5732 5733 5734 5735 5735 5736 5737 5737 5738 5738 5738
5757 5754 5751 5747 5744 5741 5737 5734 5731 5728 5725 5722 5720 5717 5714 5711 5709 5706 5704 5702 5701 5701 5702 5705 5708 5711 5714 5717 5720 5722 5724 5725 5726 5727 5728 5729 5730 5730 5731 5731 5731 5731 5731
5757 5754 5751 5748 5744 5741 5737 5734 5730 5727 5723 5720 5716 5713 5710 5707 5704 5701 5697 5695 5693 5692 5693 5696 5700 5704 5708 5711 5714 5717 5719 5720 5721 5722 5723 5724 5724 5724 5725 5724 5724 5724 5723
5759 5756 5753 5749 5746 5742 5738 5735 5731 5727 5723 5718 5715 5711 5707 5704 5701 5697 5693 5690 5688 5687 5688 5690 5694 5698 5703 5707 5710 5713 5714 5716 5717 5718 5718 5719 5719 5719 5719 5718 5718 5717 5716
5763 5760 5756 5752 5748 5744 5740 5736 5732 5728 5723 5719 5714 5710 5707 5703 5700 5696 5692 5690 5688 5688 5688 5690 5693 5697 5701 5705 5708 5710 5712 5713 5714 5715 5715 5715 5715 5714 5714 5713 5711 5710 5709
5766 5763 5759 5756 5752 5747 5743 5739 5734 5730 5725 5721 5716 5712 5708 5705 5701 5698 5695 5693 5692 5692 5692 5694 5696 5699 5702 5705 5707 5709 5711 5712 5712 5712 5712 5712 5711 5710 5708 5706 5704 5702 5700
5770 5766 5763 5759 5755 5751 5747 5742 5738 5734 5729 5725 5720 5716 5712 5709 5706 5703 5701 5699 5698 5698 5698 5699 5701 5703 5705 5707 5709 5710 5711 5712 5711 5711 5710 5708 5707 5705 5703 5700 5698 5695 5692
5773 5770 5766 5763 5759 5755 5751 5747 5743 5739 5734 5730 5726 5722 5718 5715 5712 5710 5708 5706 5705 5705 5705 5706 5706 5707 5709 5710 5711 5712 5712 5712 5711 5709 5708 5706 5703 5700 5697 5694 5690 5687 5683
5775 5772 5770 5766 5763 5759 5756 5752 5748 5744 5740 5737 5733 5730 5726 5723 5720 5718 5716 5715 5713 5713 5712 5713 5713 5713 5714 5714 5714 5714 5713 5712 5710 5708 5705 5702 5699 5696 5692 5688 5683 5679 5675
5778 5775 5772 5769 5766 5763 5760 5757 5753 5750 5746 5743 5740 5737 5734 5731 5729 5726 5724 5723 5721 5720 5719 5719 5719 5719 5718 5718 5717 5716 5714 5712 5710 5707 5704 5700 5696 5692 5688 5683 5679 5674 5670
5780 5778 5775 5772 5769 5766 5763 5761 5758 5755 5752 5748 5746 5743 5740 5738 5736 5734 5732 5730 5728 5727 5726 5725 5724 5723 5722 5721 5719 5718 5716 5713 5710 5707 5703 5699 5695 5691 5686 5681 5676 5671 5666
5782 5780 5778 5775 5772 5769 5767 5764 5762 5759 5756 5754 5751 5748 5746 5744 5742 5740 5738 5736 5734 5733 5731 5730 5728 5727 5726 5724 5722 5720 5717 5714 5711 5707 5703 5699 5695 5690 5685 5679 5674 5668 5663
5784 5782 5780 5778 5775 5773 5770 5767 5765 5762 5760 5758 5755 5753 5751 5748 5746 5744 5742 5741 5739 5737 5735 5734 5732 5730 5728 5726 5724 5721 5718 5715 5712 5708 5704 5700 5695 5690 5685 5679 5674 5668 5662
5785 5784 5782 5780 5777 5775 5773 5770 5768 5765 5763 5761 5759 5756 5754 5752 5750 5748 5746 5744 5743 5741 5739 5737 5735 5733 5731 5728 5726 5723 5720 5716 5713 5709 5705 5701 5696 5691 5686 5680 5675 5669 5663